#timestamp,LO_Frequency,Hit,StdDev 
1506474015.4,286047002.2,N
1506474035.3,286047003.4,N
1506474055.1,286047003.9,N
1506474075.8,286047001.4,N
1506474095.7,286047002.2,N
1506474115.5,286046998.4,N
1506474135.3,286046996.5,N
1506474155.2,286046995.0,N
1506474175.9,286046997.6,N
1506474195.7,286046995.3,N
1506474215.6,286046994.2,N
1506474235.4,286046993.9,N
1506474255.2,286046991.7,N
1506474275.0,286046990.7,N
1506474275.9,286046990.7,N
1506474295.8,286046989.1,Y
1506474315.6,286046991.7,P
1506474335.4,286046994.5,N
1506474355.3,286046990.1,P
1506474375.1,286046992.0,N
1506474395.8,286046993.0,N
1506474415.7,286046990.6,Y
1506474435.5,286046999.6,P
1506474455.3,286046996.8,N
1506474475.2,286046999.4,N
1506474495.9,286046995.0,N
1506474515.7,286046997.2,N
1506474535.6,286046997.1,N
1506474555.4,286046996.6,N
1506474575.2,286046996.9,N
1506474595.1,286046995.6,N
1506474596.0,286046995.6,N
1506474615.8,286046996.1,N
1506474635.6,286046996.3,N
1506474655.5,286046993.3,Y
1506474675.3,286046995.8,P
1506474695.1,286046997.7,P
1506474715.9,286046998.8,N
1506474735.7,286046995.0,Y
1506474755.5,286046996.2,P
1506474775.4,286046996.5,P
1506474795.2,286047002.5,P
1506474815.0,286047005.8,N
1506474815.9,286047005.8,N
1506474835.8,286047005.3,N
1506474855.6,286047012.2,N
1506474875.4,286047011.5,N
1506474895.3,286047017.9,Y
1506474915.1,286047015.3,P
1506474916.0,286047015.3,N
1506474935.8,286047018.6,P
1506474955.7,286047017.2,Y
1506474975.5,286047003.3,P
1506474995.3,286047009.7,N
1506475015.2,286047006.9,N
1506475035.9,286047006.3,N
1506475055.7,286047010.2,Y
1506475075.6,286047000.1,P
1506475095.4,286047003.1,N
1506475115.2,286047004.8,N
1506475135.1,286047004.1,N
1506475136.0,286047004.1,N
1506475155.8,286047005.3,N
1506475175.6,286047006.8,Y
1506475195.5,286047004.7,P
1506475215.3,286047003.3,P
1506475235.1,286047007.2,P
1506475255.9,286047007.1,Y
1506475275.7,286047001.1,P
1506475295.5,286047001.8,N
1506475315.4,286047003.9,N
1506475335.2,286047001.8,N
1506475355.0,286047001.9,N
1506475355.9,286047001.9,N
1506475375.7,286046999.8,N
1506475395.6,286047002.5,N
1506475415.4,286046998.3,N
1506475435.2,286046998.2,N
1506475455.1,286047000.2,N
1506475456.0,286047000.2,N
1506475475.8,286047006.9,Y
1506475495.6,286047001.5,P
1506475515.5,286046999.5,P
1506475535.3,286046995.6,P
1506475555.1,286046992.2,Y
1506475575.9,286046992.7,P
1506475595.7,286046992.6,N
1506475615.5,286046997.6,N
1506475635.4,286046993.6,N
1506475655.2,286046990.4,Y
1506475675.0,286046995.1,P
1506475675.9,286046995.1,P
1506475695.8,286046993.3,P
1506475715.6,286046996.3,Y
1506475735.4,286046999.1,P
1506475755.3,286046996.6,N
1506475775.1,286046997.8,N
1506475795.8,286046995.9,N
1506475815.7,286046992.5,Y
1506475835.5,286046996.1,P
1506475855.3,286046992.0,P
1506475875.2,286046994.8,N
1506475895.9,286046992.4,Y
1506475915.7,286046995.4,P
1506475935.6,286046995.3,P
1506475955.4,286046993.3,P
1506475975.2,286046993.7,Y
1506475995.1,286046996.9,P
1506475996.0,286046996.9,N
1506476015.8,286046997.2,N
1506476035.6,286046998.2,N
1506476055.5,286047003.9,Y
1506476075.3,286047008.7,P
1506476095.1,286047008.1,N
1506476115.9,286047012.0,N
1506476135.7,286047012.7,N
1506476155.5,286047011.8,N
1506476175.4,286047011.1,N
1506476195.2,286047011.9,N
1506476215.0,286047011.7,N
1506476215.9,286047011.7,N
1506476235.8,286047014.4,Y
1506476255.6,286047005.4,P
1506476275.4,286047008.3,P
1506476295.3,286047009.4,P
1506476315.1,286047011.2,Y
1506476335.8,286047002.8,P
1506476355.7,286047002.1,N
1506476375.5,286047002.2,N
1506476395.3,286047001.6,N
1506476415.2,286047002.9,N
1506476435.9,286047004.6,N
1506476455.7,286047000.5,N
1506476475.6,286047002.3,N
1506476495.4,286047000.7,N
1506476515.2,286046999.8,N
1506476535.0,286047004.2,N
1506476536.0,286047004.2,N
1506476555.8,286047001.5,N
1506476575.6,286047001.7,N
1506476595.4,286047000.7,N
1506476615.3,286047001.1,N
1506476635.1,286047002.8,N
1506476655.8,286047002.4,N
1506476675.7,286046998.6,N
1506476695.5,286046999.2,N
1506476715.3,286046998.3,N
1506476735.2,286046995.5,N
1506476755.9,286046994.4,N
1506476775.7,286046992.1,N
1506476795.6,286046994.1,N
1506476815.4,286046997.7,N
1506476835.2,286046997.2,N
1506476855.0,286046995.4,N
1506476856.0,286046995.4,N
1506476875.8,286046994.6,N
1506476895.6,286046994.4,N
1506476915.4,286046994.6,N
1506476935.3,286046995.5,N
1506476955.1,286046993.4,N
1506476975.8,286046985.3,Y
1506476995.7,286046986.4,P
1506477015.5,286046989.4,N
1506477035.3,286046994.1,N
1506477055.2,286046997.8,N
1506477075.9,286046995.4,N
1506477095.7,286046999.3,N
1506477115.6,286047003.5,N
1506477135.4,286047006.3,N
1506477155.2,286047006.4,N
1506477175.1,286047008.1,N
1506477176.0,286047008.1,N
1506477195.8,286047009.7,N
1506477215.6,286047009.8,N
1506477235.4,286047013.3,N
1506477255.3,286047011.3,N
1506477275.1,286047011.2,N
1506477295.8,286047013.4,N
1506477315.7,286047014.9,N
1506477335.5,286047016.9,N
1506477355.3,286047018.7,N
1506477375.2,286047018.5,N
1506477395.9,286047020.0,N
1506477415.7,286047017.7,N
1506477435.6,286047016.7,N
1506477455.4,286047016.7,N
1506477475.2,286047015.8,N
1506477495.0,286047016.1,N
1506477496.0,286047016.1,N
1506477515.8,286047014.6,N
1506477535.6,286047018.2,N
1506477555.4,286047018.0,N
1506477575.3,286047019.3,N
1506477595.1,286047018.5,N
